Location: Vinland
(47.7731°N, 122.6974°W)
Time: 19:50:45
(UTC+00:00)

Vanguard 1 Rocket - Pass Details

Date: 30 March 2023
Orbit: 655 x 4220 km, 34.3° (Epoch: 05 June)

Event Time Altitude Azimuth Distance (km) Brightness Sun altitude
Rises 09:50:00 0° 270° (W) 7,924 11.9 -34.5°
Reaches altitude 10° 09:56:29 10° 265° (W) 6,443 11.4 -33.9°
Enters shadow 09:57:45 12° 263° (W) 6,143 11.3 -33.8°
Exits shadow 10:19:56 17° 149° (SSE) 3,339 10.0 -31.7°
Drops below altitude 10° 10:21:36 10° 141° (SE) 3,667 10.3 -31.5°
Sets 10:24:12 0° 133° (SE) 4,306 10.8 -31.3°
